�������l�o���
Date,Time,MP-1(��Sv/h),MP-2(��Sv/h),MP-3(��Sv/h),MP-4(��Sv/h),MP-5(��Sv/h),MP-6(��Sv/h),MP-7(��Sv/h),MP-8(��Sv/h),����,����(m/s),���J
2020/06/23,00:00,0.667,0.936,0.613,1.153,0.821,0.382,0.667,0.627,�k�k��,12.4,�L
2020/06/23,00:10,0.668,0.935,0.614,1.154,0.822,0.383,0.667,0.627,�k�k��,8.3,�L
2020/06/23,00:20,0.667,0.935,0.614,1.152,0.823,0.385,0.668,0.627,�k�k��,10.5,�L
2020/06/23,00:30,0.665,0.934,0.614,1.154,0.825,0.385,0.668,0.625,�k�k��,8.5,�L
2020/06/23,00:40,0.667,0.934,0.617,1.156,0.824,0.384,0.669,0.627,�k�k��,10.7,�L
2020/06/23,00:50,0.666,0.935,0.614,1.156,0.823,0.385,0.666,0.626,�k�k��,9.8,�L
2020/06/23,01:00,0.666,0.938,0.613,1.153,0.821,0.385,0.667,0.627,�k�k��,9.2,�L
2020/06/23,01:10,0.667,0.937,0.614,1.156,0.823,0.385,0.668,0.628,�k�k��,10.5,�L
2020/06/23,01:20,0.665,0.936,0.615,1.155,0.821,0.385,0.667,0.627,�k�k��,10.0,�L
2020/06/23,01:30,0.665,0.937,0.615,1.153,0.822,0.384,0.668,0.625,�k�k��,10.2,�L
2020/06/23,01:40,0.664,0.933,0.614,1.152,0.822,0.384,0.666,0.626,�k�k��,9.2,�L
2020/06/23,01:50,0.665,0.936,0.615,1.150,0.822,0.384,0.668,0.627,�k�k��,11.0,�L
2020/06/23,02:00,0.665,0.935,0.613,1.154,0.824,0.385,0.668,0.627,�k�k��,11.3,�L
2020/06/23,02:10,0.667,0.938,0.616,1.153,0.822,0.387,0.667,0.627,�k�k��,10.6,�L
2020/06/23,02:20,0.667,0.936,0.617,1.154,0.823,0.386,0.667,0.629,�k�k��,10.2,�L
2020/06/23,02:30,0.668,0.938,0.616,1.157,0.823,0.386,0.668,0.628,�k�k��,10.8,�L
2020/06/23,02:40,0.667,0.940,0.615,1.154,0.823,0.387,0.668,0.628,�k�k��,9.9,�L
2020/06/23,02:50,0.668,0.936,0.614,1.156,0.825,0.385,0.669,0.627,�k�k��,10.2,�L
2020/06/23,03:00,0.666,0.938,0.615,1.156,0.825,0.385,0.668,0.628,�k�k��,10.0,�L
2020/06/23,03:10,0.667,0.940,0.614,1.155,0.823,0.386,0.668,0.630,�k�k��,9.7,�L
2020/06/23,03:20,0.666,0.940,0.614,1.157,0.825,0.387,0.669,0.627,�k�k��,10.2,�L
2020/06/23,03:30,0.668,0.938,0.614,1.153,0.823,0.385,0.668,0.627,�k�k��,10.0,�L
2020/06/23,03:40,0.665,0.937,0.614,1.155,0.825,0.384,0.669,0.629,�k�k��,11.1,�L
2020/06/23,03:50,0.667,0.938,0.616,1.155,0.823,0.387,0.669,0.628,�k�k��,10.9,�L
2020/06/23,04:00,0.667,0.939,0.615,1.156,0.824,0.386,0.668,0.628,�k�k��,10.8,�L
2020/06/23,04:10,0.667,0.937,0.614,1.157,0.826,0.387,0.667,0.628,�k�k��,11.1,�L
2020/06/23,04:20,0.666,0.937,0.614,1.158,0.826,0.386,0.669,0.629,�k�k��,11.7,�L
2020/06/23,04:30,0.667,0.937,0.615,1.156,0.824,0.386,0.670,0.628,�k�k��,11.6,�L
2020/06/23,04:40,0.667,0.939,0.615,1.156,0.826,0.386,0.671,0.629,�k�k��,11.7,�L
2020/06/23,04:50,0.667,0.939,0.615,1.159,0.827,0.386,0.669,0.629,�k�k��,11.3,�L
2020/06/23,05:00,0.665,0.941,0.615,1.158,0.826,0.385,0.671,0.630,�k�k��,11.3,�L
2020/06/23,05:10,0.668,0.941,0.616,1.157,0.826,0.385,0.669,0.628,�k�k��,10.3,�L
2020/06/23,05:20,0.666,0.938,0.618,1.159,0.826,0.386,0.670,0.630,�k�k��,10.2,�L
2020/06/23,05:30,0.668,0.941,0.616,1.159,0.825,0.386,0.669,0.632,�k�k��,10.5,�L
2020/06/23,05:40,0.667,0.941,0.617,1.159,0.825,0.386,0.669,0.631,�k�k��,9.3,��
2020/06/23,05:50,0.669,0.943,0.616,1.161,0.828,0.386,0.669,0.632,�k�k��,8.4,�L
2020/06/23,06:00,0.668,0.942,0.617,1.160,0.828,0.388,0.669,0.631,�k�k��,10.7,�L
2020/06/23,06:10,0.669,0.943,0.618,1.160,0.828,0.385,0.670,0.633,�k�k��,9.6,�L
2020/06/23,06:20,0.669,0.942,0.617,1.162,0.829,0.386,0.670,0.633,�k�k��,10.5,�L
2020/06/23,06:30,0.669,0.942,0.617,1.164,0.829,0.386,0.668,0.630,�k�k��,8.6,�L
2020/06/23,06:40,0.666,0.942,0.618,1.159,0.830,0.387,0.671,0.630,�k�k��,11.3,�L
2020/06/23,06:50,0.666,0.941,0.615,1.160,0.826,0.386,0.670,0.628,�k�k��,8.9,�L
2020/06/23,07:00,0.666,0.942,0.615,1.161,0.829,0.385,0.668,0.628,�k�k��,10.0,�L
2020/06/23,07:10,0.667,0.942,0.615,1.162,0.827,0.386,0.669,0.629,�k�k��,9.3,�L
2020/06/23,07:20,0.667,0.941,0.617,1.161,0.829,0.387,0.670,0.628,�k�k��,9.7,��
2020/06/23,07:30,0.667,0.940,0.615,1.162,0.828,0.386,0.671,0.629,�k�k��,9.0,��
2020/06/23,07:40,0.668,0.941,0.615,1.160,0.828,0.385,0.670,0.629,�k�k��,8.8,��
2020/06/23,07:50,0.668,0.942,0.615,1.164,0.830,0.387,0.672,0.630,�k�k��,8.8,�L
2020/06/23,08:00,0.669,0.946,0.617,1.160,0.829,0.386,0.672,0.629,�k�k��,9.2,�L
2020/06/23,08:10,0.667,0.940,0.618,1.163,0.832,0.386,0.673,0.630,�k�k��,8.6,�L
2020/06/23,08:20,0.668,0.943,0.615,1.163,0.829,0.386,0.670,0.631,�k�k��,8.7,��
2020/06/23,08:30,0.668,0.941,0.617,1.163,0.831,0.385,0.671,0.631,�k�k��,9.5,��
2020/06/23,08:40,0.668,0.940,0.617,1.167,0.831,0.384,0.673,0.630,�k�k��,10.9,��
2020/06/23,08:50,0.668,0.940,0.614,1.165,0.833,0.385,0.673,0.632,�k�k��,9.1,��
2020/06/23,09:00,0.668,0.938,0.610,1.163,0.831,0.385,0.673,0.631,�k�k��,9.1,��
2020/06/23,09:10,0.669,0.938,0.612,1.164,0.831,0.386,0.673,0.631,�k�k��,9.2,��
2020/06/23,09:20,0.669,0.942,0.611,1.165,0.830,0.385,0.673,0.630,�k�k��,10.9,��
2020/06/23,09:30,0.670,0.941,0.614,1.167,0.831,0.387,0.674,0.631,�k�k��,10.2,��
2020/06/23,09:40,0.668,0.942,0.613,1.168,0.831,0.386,0.674,0.630,�k�k��,8.3,��
2020/06/23,09:50,0.670,0.942,0.614,1.167,0.833,0.386,0.674,0.631,�k�k��,8.1,��
2020/06/23,10:00,0.671,0.941,0.613,1.168,0.832,0.386,0.673,0.630,�k�k��,10.3,��
2020/06/23,10:10,0.670,0.943,0.611,1.168,0.832,0.387,0.674,0.632,�k�k��,9.3,�L
2020/06/23,10:20,0.671,0.946,0.614,1.167,0.833,0.387,0.674,0.630,�k�k��,6.7,�L
2020/06/23,10:30,0.671,0.943,0.615,1.167,0.834,0.386,0.674,0.632,�k�k��,8.0,��
2020/06/23,10:40,0.673,0.944,0.616,1.169,0.833,0.387,0.674,0.631,�k�k��,7.3,�L
2020/06/23,10:50,0.671,0.946,0.616,1.168,0.836,0.388,0.674,0.632,�k�k��,8.5,�L
2020/06/23,11:00,0.673,0.942,0.615,1.170,0.836,0.387,0.677,0.632,�k�k��,7.2,�L
2020/06/23,11:10,0.672,0.947,0.617,1.170,0.836,0.386,0.675,0.631,�k�k��,7.0,��
2020/06/23,11:20,0.671,0.945,0.618,1.169,0.834,0.388,0.674,0.631,�k�k��,5.9,��
2020/06/23,11:30,0.674,0.949,0.616,1.168,0.836,0.387,0.675,0.630,�k�k��,5.8,��
2020/06/23,11:40,0.672,0.947,0.616,1.169,0.837,0.387,0.675,0.631,�k�k��,4.4,��
2020/06/23,11:50,0.674,0.949,0.617,1.172,0.836,0.388,0.676,0.632,�k�k��,4.6,��
2020/06/23,12:00,0.674,0.949,0.618,1.172,0.836,0.388,0.676,0.632,�k�k��,4.3,��
2020/06/23,12:10,0.673,0.949,0.617,1.171,0.836,0.388,0.676,0.633,�k�k��,4.7,��
2020/06/23,12:20,0.674,0.952,0.618,1.171,0.837,0.388,0.676,0.632,�k�k��,3.4,��
2020/06/23,12:30,0.674,0.952,0.617,1.172,0.838,0.387,0.676,0.634,�k�k��,3.5,��
2020/06/23,12:40,0.675,0.953,0.620,1.171,0.837,0.388,0.676,0.632,�k�k��,4.0,�L
2020/06/23,12:50,0.675,0.951,0.617,1.170,0.837,0.388,0.678,0.632,�k�k��,3.5,��
2020/06/23,13:00,0.674,0.951,0.619,1.172,0.839,0.388,0.675,0.632,�k��,3.8,��
2020/06/23,13:10,0.673,0.950,0.618,1.173,0.838,0.388,0.675,0.633,��,2.3,��
2020/06/23,13:20,0.676,0.953,0.618,1.169,0.838,0.389,0.675,0.633,���쐼,1.9,��
2020/06/23,13:30,0.674,0.950,0.616,1.171,0.839,0.388,0.676,0.633,���쐼,2.0,��
2020/06/23,13:40,0.673,0.948,0.618,1.171,0.838,0.388,0.676,0.633,��쓌,1.5,��
2020/06/23,13:50,0.672,0.948,0.619,1.171,0.838,0.388,0.676,0.632,��쓌,1.5,��
2020/06/23,14:00,0.671,0.948,0.618,1.173,0.838,0.388,0.676,0.633,�쓌,2.0,��
2020/06/23,14:10,0.675,0.947,0.619,1.172,0.840,0.387,0.676,0.633,�쓌,2.4,��
2020/06/23,14:20,0.672,0.951,0.619,1.173,0.839,0.387,0.675,0.634,�쓌,3.4,��
2020/06/23,14:30,0.673,0.949,0.618,1.170,0.839,0.386,0.676,0.631,��쓌,4.7,��
2020/06/23,14:40,0.674,0.952,0.619,1.173,0.840,0.387,0.676,0.632,��쓌,6.8,��
2020/06/23,14:50,0.674,0.953,0.618,1.174,0.841,0.386,0.676,0.633,��쓌,6.7,��
2020/06/23,15:00,0.674,0.953,0.620,1.174,0.839,0.387,0.675,0.633,��쓌,6.3,��
2020/06/23,15:10,0.672,0.954,0.621,1.173,0.839,0.387,0.676,0.632,��쓌,7.2,��
2020/06/23,15:20,0.674,0.956,0.621,1.172,0.840,0.388,0.675,0.632,��,7.4,��
2020/06/23,15:30,0.673,0.956,0.619,1.175,0.842,0.388,0.678,0.633,��,7.6,��
2020/06/23,15:40,0.674,0.956,0.620,1.175,0.840,0.388,0.676,0.633,��,5.9,��
2020/06/23,15:50,0.673,0.956,0.621,1.173,0.839,0.389,0.676,0.633,��,5.3,��
2020/06/23,16:00,0.675,0.959,0.622,1.175,0.842,0.387,0.678,0.633,��,6.1,��
2020/06/23,16:10,0.674,0.956,0.621,1.173,0.839,0.390,0.676,0.635,��,6.2,��
2020/06/23,16:20,0.674,0.957,0.620,1.173,0.840,0.389,0.676,0.633,��,5.8,��
2020/06/23,16:30,0.673,0.959,0.621,1.175,0.841,0.390,0.678,0.631,��,6.2,��
2020/06/23,16:40,0.673,0.959,0.620,1.173,0.841,0.389,0.678,0.633,��,5.2,��
2020/06/23,16:50,0.674,0.956,0.621,1.173,0.841,0.390,0.677,0.632,��,4.6,��
2020/06/23,17:00,0.673,0.960,0.623,1.174,0.840,0.390,0.677,0.634,��쓌,5.5,��
2020/06/23,17:10,0.672,0.959,0.620,1.176,0.840,0.390,0.676,0.632,��,7.0,��
2020/06/23,17:20,0.675,0.958,0.623,1.173,0.840,0.389,0.677,0.633,��,6.6,��
2020/06/23,17:30,0.674,0.959,0.622,1.173,0.841,0.390,0.675,0.635,��쓌,5.9,��
2020/06/23,17:40,0.674,0.960,0.621,1.175,0.843,0.391,0.678,0.634,��쓌,6.5,��
2020/06/23,17:50,0.673,0.960,0.620,1.173,0.841,0.390,0.676,0.633,��쓌,6.7,��
2020/06/23,18:00,0.676,0.959,0.623,1.177,0.840,0.390,0.676,0.635,��,5.0,��
2020/06/23,18:10,0.674,0.961,0.620,1.177,0.841,0.390,0.677,0.634,��쓌,5.5,��
2020/06/23,18:20,0.674,0.959,0.623,1.175,0.844,0.390,0.677,0.633,��쓌,7.0,��
2020/06/23,18:30,0.675,0.959,0.621,1.176,0.841,0.391,0.677,0.636,��쓌,6.9,��
2020/06/23,18:40,0.674,0.960,0.621,1.175,0.841,0.392,0.677,0.634,��,5.5,�L
2020/06/23,18:50,0.675,0.959,0.622,1.174,0.841,0.393,0.676,0.633,��,5.9,��
2020/06/23,19:00,0.675,0.962,0.622,1.177,0.842,0.392,0.676,0.635,��,6.0,��
2020/06/23,19:10,0.674,0.960,0.622,1.175,0.844,0.391,0.677,0.633,��,6.1,��
2020/06/23,19:20,0.675,0.962,0.621,1.177,0.842,0.392,0.676,0.634,��,6.2,��
2020/06/23,19:30,0.675,0.961,0.624,1.177,0.844,0.392,0.678,0.633,��,6.4,��
2020/06/23,19:40,0.674,0.961,0.623,1.177,0.843,0.392,0.678,0.636,��,7.0,�L
2020/06/23,19:50,0.673,0.962,0.621,1.178,0.843,0.393,0.676,0.634,��,5.9,�L
2020/06/23,20:00,0.675,0.962,0.624,1.175,0.842,0.393,0.677,0.635,��,6.7,�L
2020/06/23,20:10,0.674,0.962,0.622,1.173,0.843,0.391,0.679,0.634,��,5.9,�L
2020/06/23,20:20,0.673,0.961,0.623,1.177,0.842,0.392,0.678,0.636,��,5.2,�L
2020/06/23,20:30,0.675,0.963,0.623,1.178,0.844,0.393,0.677,0.635,��,5.0,�L
2020/06/23,20:40,0.675,0.964,0.622,1.177,0.843,0.393,0.678,0.636,��,4.1,�L
2020/06/23,20:50,0.675,0.964,0.623,1.176,0.844,0.394,0.677,0.634,��,4.0,�L
2020/06/23,21:00,0.677,0.964,0.623,1.177,0.843,0.391,0.677,0.634,��,4.5,��
2020/06/23,21:10,0.677,0.963,0.623,1.177,0.843,0.393,0.677,0.635,��쓌,6.3,��
2020/06/23,21:20,0.676,0.963,0.623,1.177,0.845,0.391,0.677,0.634,��쓌,7.6,��
2020/06/23,21:30,0.675,0.962,0.624,1.178,0.845,0.393,0.677,0.633,��쓌,7.8,��
2020/06/23,21:40,0.674,0.963,0.623,1.175,0.843,0.391,0.675,0.634,��쓌,7.7,��
2020/06/23,21:50,0.676,0.963,0.624,1.176,0.842,0.393,0.678,0.634,��쓌,8.0,��
2020/06/23,22:00,0.674,0.960,0.624,1.176,0.844,0.392,0.676,0.634,��쓌,7.9,��
2020/06/23,22:10,0.674,0.959,0.626,1.177,0.841,0.392,0.678,0.633,��쓌,7.8,��
2020/06/23,22:20,0.674,0.961,0.624,1.175,0.842,0.392,0.677,0.634,��쓌,8.2,��
2020/06/23,22:30,0.674,0.961,0.623,1.175,0.842,0.392,0.679,0.633,��쓌,7.7,��
2020/06/23,22:40,0.673,0.961,0.623,1.177,0.841,0.392,0.677,0.633,��쓌,7.1,��
2020/06/23,22:50,0.674,0.962,0.622,1.175,0.841,0.393,0.677,0.633,��쓌,6.4,��
2020/06/23,23:00,0.674,0.962,0.623,1.178,0.841,0.391,0.677,0.632,��쓌,7.0,��
2020/06/23,23:10,0.674,0.962,0.621,1.178,0.842,0.392,0.676,0.634,��쓌,7.2,��
2020/06/23,23:20,0.676,0.963,0.622,1.177,0.842,0.393,0.677,0.635,��쓌,5.7,��
2020/06/23,23:30,0.674,0.961,0.622,1.174,0.840,0.392,0.677,0.633,��쓌,6.5,��
2020/06/23,23:40,0.675,0.962,0.622,1.176,0.844,0.392,0.677,0.633,��쓌,6.0,��
2020/06/23,23:50,0.675,0.963,0.624,1.178,0.840,0.391,0.677,0.634,��쓌,6.4,��
